DMSP 5D-2 F13 DEB, 40577

Orbit data source: Space-Track

DMSP 5D-2 F13 DEB, 40577 is space debris in SSO originally from a launch on Fri, 24 Mar 1995 UTC launched from the Air Force Western Test Range (AFWTR). Debris objects in space refer to the collection of defunct objects orbiting the Earth. Examples of debris include non-operational satellites, rocket bodies, and fragments generated from explosions, collisions, or faulty payload assembly.

Loading next visibility...
Identifier
40577, 1995-015EL
Orbit
SSO
Country
Flag of USUS
Related business
Manufacturer
Unknown
Mission
Spacecraft
Bus & Motor
Unknown
Mass
Unknown
Launch date (UTC)
1995-03-24 (31 years ago)
Launch vehicle
Unknown
Launch site
Air Force Western Test Range (AFWTR)
Object type
Payload
Rocket body
Debris
Shape & HBR
Unknown shape, 0.1 m
Radar Cross Section
Small (<0.1 m²)

Expand to show TLE details & history
Last TLE update: 4 days ago

TLE from 4 days ago
0 DMSP 5D-2 F13 DEB
1 40577U 95015EL  26121.57659400  .00009029  00000-0  22584-2 0  9994
2 40577  98.6539 171.3967 0008218 292.0956  67.9366 14.51686456576822
Epoch: 2026-05-01T13:50Z
TLE epoch observation values (Epoch: 2026-05-01T13:50:17.721Z)
Latitude
0.00005°
Longitude
104.31599°
Altitude
720.918 km
Speed
7.496 km/s
True Right ascension
11h 25m 35s
True Declination
0° 00' 00"
Sunlit
Object was in full shadow at epoch
Visualization orbit readout
Latitude
Unknown
Longitude
Unknown
Altitude
Unknown
Speed
Unknown
Apparent Right ascension
Unknown
Apparent Declination
Unknown
Sunlit
N/A
Visualization observer readout
Local Sidereal Time
07:39:49
Azimuth
Unknown
Elevation
Unknown
Doppler factor
Unknown
Orbital elements
Apogee altitude
723.09 km
Perigee altitude
711.428 km
Semi-major axis
7,095.396 km
Eccentricity
0.00082
Inclination
98.6539°
RAAN
171.3967°
Arg. of periapsis
292.0956°
True anomaly
68.02391°
Mean anomaly
67.9366°
Eccentric anomaly
67.98025°
Mean motion
3.63143 °/min
Orbital period
99.13 mins
BSTAR
0.0022584

Documentation

Showing up to 5 results
|